Antwerp, Belgium

12:17 AM CEST on October 19, 2017 (GMT +0200)
Deurne

Weather History for EBAW - July, 2013

Change the Weather History Date:

Sunday, July 14, 2013

  Actual Average Record
Temperature  
Mean Temperature 66 °F -  
Max Temperature 78 °F 71 °F 84 °F (2003)
Min Temperature 55 °F 56 °F 48 °F (2004)
Cooling Degree Days 2    
Growing Degree Days 16 (Base 50)    
Moisture  
Dew Point 57 °F    
Average Humidity 69    
Maximum Humidity 94    
Minimum Humidity 39    
Precipitation  
Precipitation 0.00 in - - ()
Sea Level Pressure  
Sea Level Pressure 30.24 in    
Wind  
Wind Speed 3 mph ()    
Max Wind Speed 7 mph    
Max Gust Speed -    
Visibility 5.8 miles    
Events      
Averages and records for this station are not official NWS values.
T = Trace of Precipitation, MM = Missing Value Source: Averaged Metar Reports

Daily Weather History Graph

Daily Weather History Graph

Search for Another Location

Airport or City:

Trip Planner

Search our weather history database for the weather conditions in past years. The results will help you decide how hot, cold, wet, or windy it might be!

Date:

Astronomy

Jul. 14, 2013 Rise Set
Actual Time 5:42 AM CEST 9:52 PM CEST
Civil Twilight 4:58 AM CEST 10:36 PM CEST
Nautical Twilight 3:54 AM CEST 11:39 PM CEST
Astronomical Twilight 2:20 AM CEST 1:15 AM CEST
Moon 12:32 PM CEST (7/14) No Moon Set
Length of Visible Light 17h 37m
Length of Day
16h 09m
Waxing Crescent, 32% of the Moon is Illuminated
Jul 14
Waxing Crescent
Jul 16
First Quarter
Jul 22
Full
Jul 29
Last Quarter
Aug 6
New

Hourly Weather History & Observations

Time (CEST) Temp. Dew Point Humidity Pressure Visibility Wind Dir Wind Speed Gust Speed Precip Events Conditions
12:00 AM 62 °F 56 °F 75% 30.26 in 7 mi NNW 4.5 mph - -  
12:20 AM 60.8 °F 55.4 °F 82% 30.24 in - North 3.5 mph - N/A   Clear
12:50 AM 60.8 °F 55.4 °F 82% 30.24 in - North 4.6 mph - N/A   Clear
1:00 AM 61 °F 56 °F 80% 30.26 in 6 mi North 4.5 mph - -  
1:20 AM 60.8 °F 55.4 °F 82% 30.24 in 5.0 mi Variable 2.3 mph - N/A   Unknown
1:50 AM 59.0 °F 55.4 °F 88% 30.24 in 5.0 mi NNE 3.5 mph - N/A   Unknown
2:00 AM 59 °F 56 °F 85% 30.27 in - NNE 2.2 mph - -  
2:20 AM 59.0 °F 55.4 °F 88% 30.24 in 4.3 mi Variable 2.3 mph - N/A   Unknown
2:50 AM 57.2 °F 55.4 °F 94% 30.24 in 3.7 mi Variable 2.3 mph - N/A   Unknown
3:00 AM 58 °F 55 °F 86% 30.26 in 3 mi North 1.2 mph - -   Mist
3:20 AM 57.2 °F 55.4 °F 94% 30.24 in 3.7 mi Variable 2.3 mph - N/A   Unknown
3:50 AM 57.2 °F 55.4 °F 94% 30.24 in 3.7 mi Variable 1.2 mph - N/A   Unknown
4:00 AM 57 °F 55 °F 89% 30.27 in 3 mi North 2.2 mph - -   Mist
4:20 AM 57.2 °F 53.6 °F 88% 30.24 in - Variable 1.2 mph - N/A   Mist
4:50 AM 55.4 °F 53.6 °F 94% 30.24 in 3.1 mi Variable 2.3 mph - N/A   Unknown
5:00 AM 56 °F 54 °F 89% 30.27 in 2 mi NNW 2.2 mph - -   Mist
5:20 AM 57.2 °F 53.6 °F 88% 30.24 in 3.1 mi Calm Calm - N/A   Unknown
5:50 AM 55.4 °F 53.6 °F 94% 30.24 in - Variable 1.2 mph - N/A   Mist
6:00 AM 56 °F 54 °F 90% 30.27 in 1 mi NNW 2.2 mph - -   Mist
6:20 AM 55.4 °F 53.6 °F 94% 30.24 in 2.5 mi NNW 1.2 mph - N/A   Mist
6:50 AM 57.2 °F 55.4 °F 94% 30.24 in 2.5 mi Calm Calm - N/A   Mist
7:00 AM 58 °F 55 °F 86% 30.27 in 2 mi Calm Calm - -   Mist
7:20 AM 59.0 °F 57.2 °F 94% 30.27 in 2.5 mi Variable 1.2 mph - N/A   Mist
7:50 AM 59.0 °F 55.4 °F 88% 30.27 in 2.8 mi NNE 3.5 mph - N/A   Mist
8:00 AM 60 °F 56 °F 83% 30.27 in 3 mi NNE 4.5 mph - -   Mist
8:20 AM 60.8 °F 57.2 °F 88% 30.27 in 3.7 mi NNE 3.5 mph - N/A   Unknown
8:50 AM 62.6 °F 57.2 °F 82% 30.27 in 4.3 mi Variable 2.3 mph - N/A   Unknown
9:00 AM 62 °F 56 °F 76% 30.28 in 4 mi North 2.2 mph - -   Clear
9:20 AM 62.6 °F 55.4 °F 77% 30.27 in - ENE 3.5 mph - N/A   Clear
9:50 AM 64.4 °F 55.4 °F 73% 30.27 in 6.2 mi NNE 3.5 mph - N/A   Partly Cloudy
10:00 AM 64 °F 56 °F 68% 30.28 in 6 mi NNE 2.2 mph - -   Scattered Clouds
10:20 AM 66.2 °F 55.4 °F 68% 30.27 in 6.2 mi North 5.8 mph - N/A   Partly Cloudy
10:50 AM 66.2 °F 55.4 °F 68% 30.27 in 6.2 mi Variable 3.5 mph - N/A   Partly Cloudy
11:00 AM 67 °F 56 °F 59% 30.28 in 6 mi 4.5 mph - -   Scattered Clouds
11:20 AM 68.0 °F 57.2 °F 68% 30.27 in 6.2 mi ENE 4.6 mph - N/A   Partly Cloudy
11:50 AM 68.0 °F 57.2 °F 68% 30.27 in - Variable 2.3 mph - N/A   Clear
12:00 PM 69 °F 57 °F 57% 30.27 in 6 mi ENE 2.2 mph - -   Clear
12:20 PM 69.8 °F 57.2 °F 64% 30.27 in - ENE 3.5 mph - N/A   Clear
12:50 PM 71.6 °F 57.2 °F 60% 30.24 in - Variable 2.3 mph - N/A   Clear
1:00 PM 72 °F 56 °F 48% 30.26 in 6 mi 2.2 mph - -   Clear
1:20 PM 71.6 °F 57.2 °F 60% 30.24 in - Variable 3.5 mph - N/A   Clear
1:50 PM 73.4 °F 57.2 °F 57% 30.24 in 6.2 mi Variable 3.5 mph - N/A   Partly Cloudy
2:00 PM 73 °F 58 °F 49% 30.25 in 6 mi 4.5 mph - -   Scattered Clouds
2:20 PM 75.2 °F 57.2 °F 53% 30.24 in 6.2 mi Variable 3.5 mph - N/A   Partly Cloudy
2:50 PM 75.2 °F 57.2 °F 53% 30.24 in 6.2 mi Variable 5.8 mph - N/A   Partly Cloudy
3:00 PM 75 °F 57 °F 44% 30.24 in 6 mi 6.7 mph - -   Scattered Clouds
3:20 PM 75.2 °F 57.2 °F 53% 30.21 in 6.2 mi NNW 5.8 mph - N/A   Partly Cloudy
3:50 PM 77.0 °F 55.4 °F 47% 30.21 in 6.2 mi Variable 3.5 mph - N/A   Partly Cloudy
4:00 PM 76 °F 56 °F 39% 30.23 in 9 mi 2.2 mph - -   Scattered Clouds
4:20 PM 75.2 °F 57.2 °F 53% 30.21 in 6.2 mi Variable 3.5 mph - N/A   Partly Cloudy
4:50 PM 77.0 °F 59.0 °F 54% 30.21 in 6.2 mi East 4.6 mph - N/A   Partly Cloudy
5:00 PM 77 °F 60 °F 45% 30.23 in 9 mi East 4.5 mph - -   Scattered Clouds
5:20 PM 78.8 °F 57.2 °F 47% 30.21 in 6.2 mi NNE 4.6 mph - N/A   Partly Cloudy
5:50 PM 75.2 °F 59.0 °F 57% 30.21 in 6.2 mi NNE 5.8 mph - N/A   Scattered Clouds
6:00 PM 76 °F 58 °F 44% 30.22 in 9 mi NNE 4.5 mph - -   Overcast
6:20 PM 75.2 °F 59.0 °F 57% 30.21 in 6.2 mi NNE 4.6 mph - N/A   Scattered Clouds
6:50 PM 75.2 °F 59.0 °F 57% 30.21 in 6.2 mi NNE 5.8 mph - N/A   Partly Cloudy
7:00 PM 76 °F 60 °F 47% 30.22 in 9 mi NNE 2.3 mph - -   Mostly Cloudy
7:20 PM 75.2 °F 57.2 °F 53% 30.21 in - NNE 4.6 mph - N/A   Clear
7:50 PM 75.2 °F 59.0 °F 57% 30.18 in - ENE 5.8 mph - N/A   Clear
8:00 PM 74 °F 60 °F 51% 30.20 in 9 mi ENE 4.5 mph - -   Scattered Clouds
8:20 PM 73.4 °F 57.2 °F 57% 30.18 in - ENE 4.6 mph - N/A   Clear
8:50 PM 71.6 °F 57.2 °F 60% 30.18 in - Variable 2.3 mph - N/A   Clear
9:00 PM 72 °F 57 °F 49% 30.20 in 16 mi 2.2 mph - -   Partly Cloudy
9:20 PM 71.6 °F 59.0 °F 64% 30.18 in - NE 4.6 mph - N/A   Clear
9:50 PM 69.8 °F 57.2 °F 64% 30.18 in - NE 3.5 mph - N/A   Clear
10:00 PM 70 °F 57 °F 54% 30.21 in 16 mi NE 2.2 mph - -   Mostly Cloudy
10:20 PM 69.8 °F 57.2 °F 64% 30.18 in - NE 3.5 mph - N/A   Clear
10:50 PM 69.8 °F 57.2 °F 64% 30.21 in - Variable 2.3 mph - N/A   Clear
11:00 PM 70 °F 58 °F 56% 30.22 in 16 mi NNE 2.2 mph - -   Mostly Cloudy
11:20 PM 68.0 °F 59.0 °F 73% 30.21 in 6.2 mi Variable 2.3 mph - N/A   Mostly Cloudy
11:50 PM 68.0 °F 59.0 °F 73% 30.21 in - ENE 4.6 mph - N/A   Clear